Time,TemperatureF,DewpointF,PressureIn,WindDirection,WindDirectionDegrees,WindSpeedMPH,WindSpeedGustMPH,Humidity,HourlyPrecipIn,Conditions,Clouds,dailyrainin,SoftwareType,DateUTC
2013-05-27 01:32:00,41.0,-99.9,29.79,North,360,3.0,15.0,0,-99.99,,,0.02,,2013-05-27 05:32:00,
2013-05-27 01:42:00,41.0,-99.9,29.79,North,360,3.0,15.0,0,-99.99,,,0.02,,2013-05-27 05:42:00,
2013-05-27 01:52:00,41.0,-99.9,29.79,North,360,3.0,15.0,0,-99.99,,,0.02,,2013-05-27 05:52:00,
2013-05-27 02:02:00,41.0,-99.9,29.79,North,360,3.0,15.0,0,-99.99,,,0.02,,2013-05-27 06:02:00,
2013-05-27 02:42:00,40.0,-99.9,29.79,NNW,337,7.0,18.0,0,-99.99,,,0.01,,2013-05-27 06:42:00,
2013-05-27 02:52:00,40.0,-99.9,29.79,NNW,337,7.0,18.0,0,-99.99,,,0.01,,2013-05-27 06:52:00,
2013-05-27 03:02:00,40.0,-99.9,29.79,NNW,337,7.0,18.0,0,-99.99,,,0.01,,2013-05-27 07:02:00,
2013-05-27 03:32:00,40.0,-99.9,29.81,NNW,337,10.0,19.0,0,-99.99,,,0.01,,2013-05-27 07:32:00,
2013-05-27 03:42:00,40.0,-99.9,29.81,NNW,337,10.0,19.0,0,-99.99,,,0.01,,2013-05-27 07:42:00,
2013-05-27 03:53:00,40.0,-99.9,29.81,NNW,337,10.0,19.0,0,-99.99,,,0.01,,2013-05-27 07:53:00,
2013-05-27 04:02:00,40.0,-99.9,29.81,NNW,337,10.0,19.0,0,-99.99,,,0.01,,2013-05-27 08:02:00,
2013-05-27 04:42:00,39.0,-99.9,29.82,North,360,5.0,19.0,0,-99.99,,,0.01,,2013-05-27 08:42:00,
2013-05-27 04:52:00,39.0,-99.9,29.82,North,360,5.0,19.0,0,-99.99,,,0.01,,2013-05-27 08:52:00,
2013-05-27 05:02:00,39.0,-99.9,29.82,North,360,5.0,19.0,0,-99.99,,,0.01,,2013-05-27 09:02:00,
2013-05-27 05:03:00,39.0,-99.9,29.83,NNW,337,9.0,18.0,0,-99.99,,,0.01,,2013-05-27 09:03:00,
2013-05-27 05:43:00,39.0,-99.9,29.83,NNW,337,9.0,18.0,0,-99.99,,,0.01,,2013-05-27 09:43:00,
2013-05-27 05:53:00,39.0,-99.9,29.83,NNW,337,9.0,18.0,0,-99.99,,,0.01,,2013-05-27 09:53:00,
2013-05-27 06:32:00,39.0,-99.9,29.85,NNW,337,5.0,18.0,0,-99.99,,,0.01,,2013-05-27 10:32:00,
2013-05-27 06:42:00,39.0,-99.9,29.85,NNW,337,5.0,18.0,0,-99.99,,,0.01,,2013-05-27 10:42:00,
2013-05-27 06:53:00,39.0,-99.9,29.85,NNW,337,5.0,18.0,0,-99.99,,,0.01,,2013-05-27 10:53:00,
2013-05-27 07:02:00,39.0,-99.9,29.85,NNW,337,5.0,18.0,0,-99.99,,,0.01,,2013-05-27 11:02:00,
2013-05-27 07:42:00,40.0,-99.9,29.86,NNW,337,8.0,19.0,0,-99.99,,,0.01,,2013-05-27 11:42:00,
2013-05-27 07:52:00,40.0,-99.9,29.86,NNW,337,8.0,19.0,0,-99.99,,,0.01,,2013-05-27 11:52:00,
2013-05-27 08:02:00,40.0,-99.9,29.86,NNW,337,8.0,19.0,0,-99.99,,,0.01,,2013-05-27 12:02:00,
2013-05-27 08:42:00,41.0,-99.9,29.87,NW,315,11.0,19.0,0,-99.99,,,0.01,,2013-05-27 12:42:00,
2013-05-27 08:52:00,41.0,-99.9,29.87,NW,315,11.0,19.0,0,-99.99,,,0.01,,2013-05-27 12:52:00,
2013-05-27 09:02:00,41.0,-99.9,29.87,NW,315,11.0,19.0,0,-99.99,,,0.01,,2013-05-27 13:02:00,
2013-05-27 09:42:00,41.0,-99.9,29.88,NNE,22,7.0,21.0,0,-99.99,,,0.01,,2013-05-27 13:42:00,
2013-05-27 09:53:00,41.0,-99.9,29.88,NNE,22,7.0,21.0,0,-99.99,,,0.01,,2013-05-27 13:53:00,
2013-05-27 10:02:00,41.0,-99.9,29.88,NNE,22,7.0,21.0,0,-99.99,,,0.01,,2013-05-27 14:02:00,
2013-05-27 10:42:00,43.0,-99.9,29.89,NW,315,12.0,20.0,0,-99.99,,,0.00,,2013-05-27 14:42:00,
2013-05-27 10:52:00,43.0,-99.9,29.89,NW,315,12.0,20.0,0,-99.99,,,0.00,,2013-05-27 14:52:00,
2013-05-27 11:02:00,43.0,-99.9,29.89,NW,315,12.0,20.0,0,-99.99,,,0.00,,2013-05-27 15:02:00,
2013-05-27 11:03:00,44.0,-99.9,29.91,NNW,337,9.0,20.0,0,-99.99,,,0.00,,2013-05-27 15:03:00,
2013-05-27 11:43:00,44.0,-99.9,29.91,NNW,337,9.0,20.0,0,-99.99,,,0.00,,2013-05-27 15:43:00,
2013-05-27 11:53:00,44.0,-99.9,29.91,NNW,337,9.0,20.0,0,-99.99,,,0.00,,2013-05-27 15:53:00,
2013-05-27 12:33:00,46.0,-99.9,29.92,North,360,10.0,20.0,0,-99.99,,,0.00,,2013-05-27 16:33:00,
2013-05-27 12:42:00,46.0,-99.9,29.92,North,360,10.0,20.0,0,-99.99,,,0.00,,2013-05-27 16:42:00,
2013-05-27 12:53:00,46.0,-99.9,29.92,North,360,10.0,20.0,0,-99.99,,,0.00,,2013-05-27 16:53:00,
2013-05-27 13:02:00,46.0,-99.9,29.92,North,360,10.0,20.0,0,-99.99,,,0.00,,2013-05-27 17:02:00,
2013-05-27 13:43:00,46.0,-99.9,29.93,NW,315,16.0,24.0,0,-99.99,,,0.00,,2013-05-27 17:43:00,
2013-05-27 13:52:00,46.0,-99.9,29.93,NW,315,16.0,24.0,0,-99.99,,,0.00,,2013-05-27 17:52:00,
2013-05-27 14:02:00,46.0,-99.9,29.93,NW,315,16.0,24.0,0,-99.99,,,0.00,,2013-05-27 18:02:00,
2013-05-27 14:42:00,48.0,-99.9,29.94,North,360,7.0,22.0,0,-99.99,,,0.00,,2013-05-27 18:42:00,
2013-05-27 14:52:00,48.0,-99.9,29.94,North,360,7.0,22.0,0,-99.99,,,0.00,,2013-05-27 18:52:00,
2013-05-27 15:01:00,48.0,-99.9,29.94,North,360,7.0,22.0,0,-99.99,,,0.00,,2013-05-27 19:01:00,
2013-05-27 15:32:00,49.0,-99.9,29.95,North,360,15.0,24.0,0,-99.99,,,0.00,,2013-05-27 19:32:00,
2013-05-27 15:42:00,49.0,-99.9,29.95,North,360,15.0,24.0,0,-99.99,,,0.00,,2013-05-27 19:42:00,
2013-05-27 15:52:00,49.0,-99.9,29.95,North,360,15.0,24.0,0,-99.99,,,0.00,,2013-05-27 19:52:00,
2013-05-27 16:02:00,49.0,-99.9,29.95,North,360,15.0,24.0,0,-99.99,,,0.00,,2013-05-27 20:02:00,
2013-05-27 16:42:00,51.0,-99.9,29.96,NNW,337,5.0,21.0,0,-99.99,,,0.00,,2013-05-27 20:42:00,
2013-05-27 16:53:00,51.0,-99.9,29.96,NNW,337,5.0,21.0,0,-99.99,,,0.00,,2013-05-27 20:53:00,
2013-05-27 17:02:00,51.0,-99.9,29.96,NNW,337,5.0,21.0,0,-99.99,,,0.00,,2013-05-27 21:02:00,
2013-05-27 17:03:00,50.0,-99.9,29.97,NNE,22,6.0,20.0,0,-99.99,,,0.00,,2013-05-27 21:03:00,
2013-05-27 17:33:00,50.0,-99.9,29.97,NNE,22,6.0,20.0,0,-99.99,,,0.00,,2013-05-27 21:33:00,
2013-05-27 17:43:00,50.0,-99.9,29.97,NNE,22,6.0,20.0,0,-99.99,,,0.00,,2013-05-27 21:43:00,
2013-05-27 17:53:00,50.0,-99.9,29.97,NNE,22,6.0,20.0,0,-99.99,,,0.00,,2013-05-27 21:53:00,
2013-05-27 18:33:00,52.0,-99.9,29.98,NW,315,4.0,19.0,0,-99.99,,,0.00,,2013-05-27 22:33:00,
2013-05-27 18:42:00,52.0,-99.9,29.98,NW,315,4.0,19.0,0,-99.99,,,0.00,,2013-05-27 22:42:00,
2013-05-27 18:53:00,52.0,-99.9,29.98,NW,315,4.0,19.0,0,-99.99,,,0.00,,2013-05-27 22:53:00,
2013-05-27 19:02:00,52.0,-99.9,29.98,NW,315,4.0,19.0,0,-99.99,,,0.00,,2013-05-27 23:02:00,
2013-05-27 19:42:00,51.0,-99.9,29.99,North,360,4.0,19.0,0,-99.99,,,0.00,,2013-05-27 23:42:00,
2013-05-27 19:52:00,51.0,-99.9,29.99,North,360,4.0,19.0,0,-99.99,,,0.00,,2013-05-27 23:52:00,
2013-05-27 20:01:00,51.0,-99.9,29.99,North,360,4.0,19.0,0,-99.99,,,0.00,,2013-05-28 00:01:00,
2013-05-27 21:32:00,44.0,-99.9,30.02,NE,45,0.0,4.0,0,-99.99,,,0.00,,2013-05-28 01:32:00,
2013-05-27 21:42:00,44.0,-99.9,30.02,NE,45,0.0,4.0,0,-99.99,,,0.00,,2013-05-28 01:42:00,
2013-05-27 21:52:00,44.0,-99.9,30.02,NE,45,0.0,4.0,0,-99.99,,,0.00,,2013-05-28 01:52:00,
2013-05-27 22:02:00,44.0,-99.9,30.02,NE,45,0.0,4.0,0,-99.99,,,0.00,,2013-05-28 02:02:00,
2013-05-27 22:32:00,39.0,-99.9,30.05,West,270,4.0,6.0,0,-99.99,,,0.00,,2013-05-28 02:32:00,
2013-05-27 22:42:00,39.0,-99.9,30.05,West,270,4.0,6.0,0,-99.99,,,0.00,,2013-05-28 02:42:00,
2013-05-27 22:52:00,39.0,-99.9,30.05,West,270,4.0,6.0,0,-99.99,,,0.00,,2013-05-28 02:52:00,
2013-05-27 23:01:00,39.0,-99.9,30.05,West,270,4.0,6.0,0,-99.99,,,0.00,,2013-05-28 03:01:00,
2013-05-27 23:03:00,38.0,-99.9,30.06,SSW,202,4.0,7.0,0,-99.99,,,0.00,,2013-05-28 03:03:00,
2013-05-27 23:43:00,38.0,-99.9,30.06,SSW,202,4.0,7.0,0,-99.99,,,0.00,,2013-05-28 03:43:00,
2013-05-27 23:53:00,38.0,-99.9,30.06,SSW,202,4.0,7.0,0,-99.99,,,0.00,,2013-05-28 03:53:00,